Location: Dammartin
(48.9032°N, 1.6195°E)
Time: 19:24:27
(UTC+00:00)

BlueWalker 3 - Pass Details

Date: 18 April 2024
Orbit: 482 x 494 km, 53.2° (Epoch: 22 May)

Event Time Altitude Azimuth Distance (km) Brightness Sun altitude
Rises 22:11:56 0° 267° (W) 2,577 5.9 -25.9°
Reaches altitude 10° 22:14:10 10° 273° (W) 1,698 5.0 -26.0°
Enters shadow 22:16:51 37° 304° (WNW) 792 3.3 -26.2°
